CAPE
1845 2057 2168 2188 2136 1722 1648 1636 1590 1439 1518 1561 1522 1353 1331 1377 1341 1306 1215 1232 1092 1035 1086 1287 1345 1302 1301 1247 1412 1502 1492 1411 1392 1334 1296 1258 1330 1220 709 711 637 558 616 599 560 694 641 627 589 550 611 801 840 998 1067 730 482 377 384 474 401 482 331 134 93 49 22 58 109 57 79 165 153 552 440 478 475 499 661 746 648 536 683 878 828
1823 2129 2078 2163 2067 1877 1755 1634 1546 1475 1591 1564 1532 1416 1381 1378 1302 1231 1181 1068 1166 1318 1257 1199 1260 1200 1329 1296 1216 1405 1390 1404 1428 1415 1454 1559 1596 1290 892 816 818 809 683 543 540 721 962 1003 1010 961 912 1050 994 1073 1034 612 369 316 373 514 598 594 721 415 232 148 45 16 12 40 43 69 270 661 537 546 584 654 594 672 646 516 646 766 837
1919 2228 2066 2010 2127 2012 1806 1573 1497 1517 1550 1548 1422 1346 1384 1358 1376 1375 1237 1294 1116 1133 1106 1181 1383 1284 1332 1290 1260 1333 1389 1306 1370 1552 1614 1683 1730 1663 1280 1233 1259 1220 1122 941 1034 1419 1647 1544 1568 1571 1587 1598 1582 1437 1131 767 706 659 595 543 534 647 619 577 638 508 256 272 204 205 137 80 152 228 437 580 603 554 600 583 577 617 486 597 718
2061 2150 1991 2020 2023 2034 1867 1477 1442 1585 1579 1492 1435 1156 1380 1434 1380 1301 1199 1329 1290 1170 1118 1148 1343 1226 1269 1370 1432 1449 1356 1235 1370 1429 1520 1390 1357 1469 1538 1460 1267 744 518 581 660 736 1172 1222 1368 1380 1406 1441 1362 1305 1372 1264 956 711 693 629 544 535 642 661 436 227 222 324 348 197 157 35 114 92 156 316 389 454 463 486 508 476 528 568 491
1979 2058 1985 1860 1848 1918 1755 1571 1562 1629 1555 1505 1243 1353 1448 1364 1249 1364 1407 1319 1279 1361 1208 1230 1267 1426 1355 1517 1486 1424 1382 1288 1240 1311 1408 1431 1439 1229 1188 1400 1308 1031 685 497 628 648 659 1015 924 1053 1227 1327 1398 1362 1235 1251 1124 1000 832 713 837 1043 790 559 561 448 181 211 330 105 37 12 23 43 46 145 278 286 291 302 316 384 378 307 410
1943 1912 1870 1730 1625 1822 1800 1622 1614 1592 1555 1528 1267 1431 1367 1284 1453 1500 1523 1256 1223 1516 1507 1335 1242 1365 1499 1454 1410 1408 1273 1206 1461 1452 1478 1445 1499 1396 1148 1021 993 990 945 947 890 673 608 771 1056 1074 1332 1408 1314 1322 1417 1277 1300 1255 1299 1136 994 1219 1296 1122 646 522 336 147 244 10 0 3 21 29 81 250 229 168 198 240 195 235 199 228 252
1871 1834 1732 1561 1521 1697 1799 1654 1720 1724 1576 1306 1384 1540 1570 1717 1726 1759 1637 1532 1498 1464 1537 1459 1492 1599 1627 1446 1503 1444 1258 1265 1792 1892 1716 1804 1584 1135 894 920 915 1022 954 861 539 487 568 770 939 1033 1095 1206 1254 1259 1241 1162 1167 1220 1250 1207 1232 1251 1281 1014 514 439 368 90 3 17 11 84 133 119 121 83 66 43 63 93 107 122 150 146 170
1751 1739 1600 1423 1367 1648 1731 1761 1758 1744 1453 1342 1380 1552 1494 1225 1661 1495 1581 1581 1466 1521 1449 1501 1547 1574 1582 1359 1292 1269 1255 1523 1518 1296 1203 1230 1278 1228 1036 779 966 1027 998 890 689 696 860 821 908 998 1110 1188 1275 1256 1193 1126 1158 1168 1133 1057 1081 1137 1297 1146 469 503 347 169 29 14 0 0 18 16 226 182 156 96 123 99 76 62 137 520 422
1706 1690 1474 1275 1276 1539 1676 1736 1802 1762 1522 1420 1474 1294 1211 1296 1735 1700 1586 1540 1374 1413 1413 1398 1470 1428 1494 1333 1259 1344 1922 2085 1989 2112 2016 1240 1394 1237 1254 1204 1136 1006 1014 960 800 764 793 925 1010 1077 1190 1201 1139 1181 1207 1194 1216 1234 1275 1324 1411 1432 1433 1333 508 391 298 35 30 11 3 0 0 0 29 42 11 16 104 207 191 39 155 303 321
1654 1590 1383 1226 1357 1659 1640 1717 1788 1698 1678 1693 1520 1486 1621 1675 1673 1512 1389 1317 1219 1287 1450 1468 1522 1452 1330 1403 1311 1521 1834 1858 1904 2085 2126 2201 2203 2315 2181 2002 1614 1294 1308 1112 911 816 820 967 1124 1073 1108 1062 1062 1172 1356 1386 1455 1392 1455 1411 1379 1481 1651 883 334 330 254 100 93 43 143 162 61 24 118 75 113 141 72 74 308 74 178 189 149
1605 1558 1368 1301 1446 1584 1641 1730 1814 1744 1899 1944 1784 1954 1844 1647 1697 1234 1020 1263 1174 1207 1451 1484 1676 1298 1266 1226 1316 1563 1738 1679 1687 1722 1933 1901 1852 1977 2019 1889 1681 1461 1283 1067 1016 909 820 904 944 1024 1019 1061 1206 1307 1413 1462 1456 1424 1617 1473 854 1240 967 403 243 311 316 304 171 66 294 289 16 83 141 171 74 111 122 147 124 146 136 116 94
1588 1560 1452 1400 1741 1601 1707 1817 1896 1884 1907 1945 1829 1941 1724 1858 1604 1371 1451 1511 1513 1414 1370 1562 1364 1225 1258 1280 1276 1475 1587 1546 1591 1716 1764 1872 1891 1730 1771 1768 1656 1583 1433 1134 1045 986 981 1060 1074 1125 1123 1207 1303 1375 1429 1476 1416 1508 1850 1311 531 549 473 366 276 385 392 328 301 230 86 218 214 283 310 222 182 126 82 77 68 65 82 124 106
1677 1671 1596 1603 1553 1646 1730 1868 1960 1982 2063 2087 1988 1977 1780 1657 1629 1535 1591 1631 1651 1557 1564 1661 1700 1725 1674 1636 1570 1506 1519 1549 1542 1517 1603 1714 1828 1841 1740 1695 1698 1636 1532 1278 1100 1081 1147 1175 1198 1305 1323 1311 1346 1371 1378 1420 1531 1598 1875 1397 512 610 592 583 410 455 502 499 412 235 74 51 100 185 214 237 224 73 36 40 233 280 233 235 210
1737 1804 1784 1560 1508 1853 1747 1880 1984 2096 2107 2024 1951 2057 1936 1742 1704 1746 1848 1839 1845 1750 1770 1799 1818 1737 1756 1794 1691 1586 1517 1522 1506 1503 1591 1702 1788 1879 1919 1819 1705 1553 1499 1371 1126 1116 1155 1213 1228 1285 1189 1152 1251 1395 1484 1443 1565 1658 1819 1630 767 804 804 726 625 561 555 471 412 191 69 70 77 202 203 94 89 135 106 89 14 8 13 11 17
1764 1889 1781 1595 1774 1758 1920 1892 2022 1997 1935 1930 1965 1983 1893 1804 1788 1806 1875 1883 1810 1788 1780 1755 1798 1784 1823 1642 1574 1584 1535 1511 1514 1498 1532 1591 1663 1688 1525 1533 1560 1556 1507 1499 1251 1046 1001 1134 1204 1202 1222 1214 1206 1358 1358 1491 1528 1569 1834 1809 918 856 697 524 537 562 515 425 403 223 51 40 143 104 98 124 102 65 59 40 25 33 27 13 10
1835 1879 1824 1739 1722 1816 1760 1732 1942 1978 2017 2054 2031 1975 1885 1806 1850 1878 1892 1914 1872 1918 1890 1853 1822 1777 1696 1691 1773 1669 1634 1676 1632 1629 1591 1539 1530 1521 1542 1512 1499 1558 1540 1451 1281 1087 1115 1153 1220 1202 1209 1291 1286 1281 1335 1514 1613 1722 1767 1473 864 711 598 432 488 452 414 357 302 277 336 378 433 433 388 346 300 271 194 170 56 51 46 46 26
1889 1876 1848 1862 1786 1648 1675 1582 1617 2029 2057 2037 1974 1925 1829 1839 1821 1868 1935 1960 1932 1918 1909 1866 1674 1657 1769 1870 1741 1681 1738 1736 1705 1706 1664 1597 1540 1558 1594 1627 1659 1612 1533 1393 1285 1189 1175 1167 1204 1207 1187 1251 1264 1371 1386 1545 1748 1871 1931 1370 866 756 662 441 416 376 333 376 361 386 394 411 490 212 195 207 195 151 110 111 110 138 106 46 18
1830 1849 1883 1878 1804 1690 1596 1456 1591 1503 1580 1669 1808 1912 1884 1816 1840 1895 1922 1914 1946 1920 1872 1860 1720 1599 1646 1844 1865 1910 1809 1784 1792 1740 1664 1641 1634 1576 1563 1629 1470 1503 1347 1282 1295 1231 1162 1147 1130 1138 1177 1202 1274 1261 1379 1520 1748 1866 1750 1477 959 831 692 436 396 336 380 598 370 378 381 535 520 278 243 238 176 188 192 146 107 94 79 56 13
1770 1866 1898 1907 1843 1658 1580 1579 1517 1514 1516 1558 1611 1811 1903 1778 1893 1941 1920 1885 1823 1902 1940 1898 1692 1557 1556 1719 1956 1801 1806 1749 1765 1729 1660 1678 1621 1609 1484 1456 1425 1342 1265 1230 1257 1216 1088 991 1002 1074 1161 1101 1202 1182 1261 1411 1687 1771 1694 1308 962 856 716 430 324 361 448 346 339 374 581 808 574 233 193 257 248 218 192 194 211 205 120 93 65
1724 1794 1859 1837 1762 1650 1590 1552 1590 1588 1566 1606 1573 1622 1808 1898 1934 1817 1926 1817 1852 1860 1924 1917 1884 1729 1709 1656 1588 1601 1458 1632 1773 1700 1716 1622 1592 1476 1468 1366 1388 1398 1300 1216 1218 1207 1190 1092 940 1020 1055 1084 1086 1171 1256 1350 1602 1779 1691 1056 1004 904 445 407 308 376 353 365 384 398 825 786 592 620 510 304 280 271 253 254 234 228 187 131 55
1666 1722 1770 1775 1699 1649 1564 1570 1607 1603 1602 1627 1370 1626 1868 2000 2046 2003 2020 1915 1854 1931 1940 1989 1808 1650 1578 1528 1438 1435 1380 1342 1590 1553 1654 1530 1543 1635 1498 1453 1361 1314 1306 1277 1267 1251 1213 1094 1098 1032 1019 961 1054 1126 1000 910 1361 1698 1518 1095 900 460 439 352 326 312 368 536 538 458 834 870 628 672 660 374 389 306 252 216 230 270 244 208 164
1677 1745 1748 1714 1662 1604 1567 1536 1522 1571 1566 1438 1448 1462 1581 1598 1686 1810 1819 1684 1711 1602 1584 1682 1572 1561 1502 1346 1345 1438 1521 1495 1562 1684 1392 1647 1514 1564 1490 1482 1387 1364 1302 1214 1116 1126 1052 1055 968 931 1053 1027 1084 555 430 513 1086 1409 1369 968 546 559 407 295 316 352 424 435 514 897 990 914 584 680 707 690 638 664 516 437 246 209 203 212 219
1712 1763 1694 1671 1669 1623 1502 1466 1532 1551 1445 1311 1270 1306 1465 1551 1588 1630 1634 1613 1525 1643 1550 1455 1473 1484 1456 1476 1482 1452 1438 1457 1377 1425 1488 1448 1529 1503 1513 1460 1392 1282 1215 1148 1074 980 1025 914 953 804 1063 917 406 118 472 386 433 1017 901 544 587 484 335 316 295 358 372 410 508 896 1159 878 572 596 572 581 694 691 518 458 402 313 249 264 183
1760 1788 1668 1659 1668 1549 1459 1426 1471 1420 1274 1226 1352 1428 1504 1507 1520 1480 1522 1471 1507 1518 1450 1420 1422 1449 1457 1461 1441 1399 1388 1363 1739 1777 1756 1453 1401 1509 1343 1246 1145 1144 1112 927 862 857 900 858 816 909 597 280 36 318 377 286 385 429 542 554 518 371 323 287 268 324 360 867 589 820 1126 884 531 532 593 757 1023 896 668 520 379 282 226 211 234
1675 1638 1590 1594 1558 1500 1446 1420 1399 1305 1214 1174 1322 1259 1394 1371 1376 1420 1474 1426 1399 1388 1394 1397 1428 1430 1405 1428 1424 1427 1404 1510 1558 1510 1379 1406 1385 1264 1162 1067 986 898 560 311 471 314 3 0 0 236 0 7 8 302 285 240 377 460 506 538 404 333 286 322 317 351 510 585 666 1134 1193 1022 618 582 753 1215 1251 1047 831 498 374 289 280 186 109
1402 1601 1556 1443 1491 1468 1478 1387 1311 1241 1151 1165 1108 1094 1270 1235 1250 1230 1360 1321 1304 1291 1346 1356 1346 1373 1369 1377 1385 1404 1411 1479 1379 1289 1286 1317 1246 1161 1124 941 762 432 187 82 398 394 0 0 313 0 0 0 0 327 5 5 352 517 539 408 347 327 328 352 398 451 514 641 1014 1115 944 1081 1038 906 1093 1316 1231 1054 645 479 390 294 205 196 187
1460 1526 1509 1383 1414 1464 1418 1397 1230 1145 1153 1055 922 998 1074 1169 1256 1281 1314 1266 1203 1245 1314 1298 1252 1279 1294 1288 1301 1275 1330 1380 1199 1116 1177 1172 1117 1140 1011 852 744 563 559 495 220 416 419 397 343 0 0 0 0 363 246 0 197 514 577 519 429 343 385 435 452 434 445 484 852 788 595 963 1504 1222 1338 1368 1224 947 700 687 520 419 314 248 223
1337 1388 1438 1312 1214 1175 1361 1324 1065 928 1007 885 792 982 1011 1084 1121 1065 1015 1078 1036 1067 1213 1222 1187 1178 1197 1189 1190 1208 1242 1210 977 995 1041 1063 1035 1083 912 765 643 663 549 414 149 498 409 402 372 0 0 0 0 305 318 3 117 382 426 467 521 355 466 504 443 446 437 461 650 1001 725 754 1492 1411 1306 1321 1042 812 522 428 508 551 438 298 186
1260 1237 1224 1161 1015 1018 1174 1188 976 764 900 862 891 787 362 596 784 835 964 988 844 918 1101 1115 1099 1082 1041 1008 1149 1262 1211 988 849 902 912 930 922 924 749 635 604 586 418 519 500 360 408 356 330 170 0 0 0 39 254 1 39 347 371 507 554 442 535 530 497 502 476 521 716 1142 1157 784 1108 1413 1220 1063 867 562 268 361 754 765 667 303 156
1230 1106 1052 1070 976 1013 1010 942 879 724 780 751 600 334 205 404 713 790 900 977 737 978 967 999 1036 1030 955 966 1113 1212 1110 923 774 809 771 720 759 729 675 723 756 588 471 513 552 509 35 22 233 190 0 0 0 27 136 390 410 129 400 488 452 428 550 562 536 498 484 561 722 938 1190 1062 811 1063 1256 903 501 408 232 250 734 831 752 347 224
1165 1105 995 947 878 848 908 885 800 697 679 390 203 78 166 178 584 825 845 851 759 824 892 908 936 1006 1001 1031 996 915 878 803 774 792 807 786 832 823 745 666 716 699 601 498 481 245 0 0 0 0 0 0 0 5 338 376 442 433 442 469 455 448 546 566 528 480 508 622 657 760 1110 1238 1165 1235 1129 895 631 474 419 226 883 837 607 408 341
1212 1124 952 950 908 783 806 874 744 553 521 444 194 115 251 205 522 756 885 917 915 778 794 852 862 834 840 886 881 824 800 807 806 788 827 733 735 783 827 749 731 589 585 542 416 0 8 28 10 0 0 0 0 0 316 355 414 421 454 425 403 420 444 528 496 520 566 614 648 641 720 981 1392 1194 1188 1250 1592 857 486 201 184 707 744 609 565
1190 1106 1020 894 898 816 719 745 726 628 563 517 310 279 196 256 518 727 816 922 973 711 636 515 758 690 754 764 830 815 821 754 705 676 626 594 577 550 614 596 529 446 433 345 14 29 53 49 34 0 0 0 0 87 276 317 327 331 396 368 393 385 450 470 525 578 614 616 588 610 695 736 843 1216 1379 1470 1560 1566 1000 539 338 512 772 860 869
1243 1165 929 820 872 811 792 773 742 656 570 516 362 253 166 386 586 797 874 948 866 653 508 588 670 615 674 840 1084 893 817 760 738 671 580 471 458 547 682 706 719 657 492 425 414 269 23 19 8 176 183 0 0 156 227 262 284 328 341 380 403 378 393 481 424 483 617 588 576 627 694 748 796 885 969 1319 1691 1706 1606 1225 1025 636 605 808 918
1327 1263 1027 910 879 1007 1007 917 826 738 610 490 273 271 226 384 544 744 836 890 834 484 546 670 677 616 673 907 1298 1219 930 875 844 780 700 580 481 562 681 785 802 854 694 583 498 308 1 7 1 174 81 0 48 6 200 225 248 298 373 386 366 302 266 293 302 485 567 541 556 612 670 765 812 861 872 779 1021 1291 1089 960 848 887 952 802 736
1441 1360 1050 995 1020 1049 1006 908 851 781 628 372 305 366 347 356 451 548 569 743 747 506 629 697 736 680 773 877 1170 1400 1331 1056 917 749 505 362 26 288 622 954 1013 1004 613 531 446 354 308 2 1 111 36 2 16 94 152 172 184 296 392 432 404 284 234 264 262 328 411 448 471 482 582 690 729 1000 749 786 1017 1198 1286 1384 1234 1122 886 662 624
1426 1177 1073 1140 1121 1027 990 954 892 831 577 448 457 326 489 385 482 444 466 680 659 573 706 764 758 769 798 1036 1148 1308 1314 1194 967 704 531 418 512 535 758 1114 1016 668 384 397 416 381 288 9 1 12 0 86 134 182 127 96 144 31 405 516 411 315 282 251 256 204 193 255 257 291 420 517 791 842 510 696 829 845 710 852 951 849 788 719 593
1201 1097 1165 1090 1066 1062 1086 1070 881 741 566 516 454 569 609 456 459 368 366 481 622 506 649 834 857 902 1018 1145 1200 1198 1168 1108 966 801 706 511 772 838 878 813 549 480 370 400 416 362 345 0 0 0 70 210 283 255 215 218 288 338 342 380 362 382 322 297 296 346 223 214 196 104 0 1 522 466 443 466 642 457 299 342 571 709 620 670 832
1174 1188 1165 1123 1064 1046 1039 1021 1044 946 597 530 521 589 647 462 457 398 405 428 479 567 898 885 830 841 963 1069 1224 1108 1023 1038 924 869 754 665 994 1019 852 674 596 534 431 401 422 406 315 165 0 0 296 334 367 265 235 321 483 572 532 479 379 362 399 436 373 299 291 322 358 354 235 237 327 375 220 232 387 290 387 380 265 130 127 162 220
1220 1249 1203 1179 1196 1033 1068 1050 1011 943 656 723 694 741 566 471 525 512 609 614 654 806 887 796 799 954 1054 1192 1126 924 829 910 964 1043 1100 1003 1014 915 794 703 616 558 493 486 491 430 338 162 0 324 405 398 330 255 271 395 488 374 330 351 339 336 416 405 346 280 294 379 456 455 316 286 335 332 340 329 299 346 400 342 397 288 178 236 207
1327 1212 1151 1145 1147 1010 1092 956 692 816 695 714 611 510 445 563 614 706 758 783 879 914 904 843 948 1227 1343 1222 997 950 852 970 1193 1101 1046 1134 1057 967 821 728 674 656 592 516 515 440 437 324 76 394 462 422 397 328 315 375 315 222 311 285 142 223 346 111 258 228 204 222 222 281 287 325 356 426 517 531 428 442 133 436 438 356 326 252 199
1244 1072 1129 1028 1046 1030 1092 745 642 650 652 762 666 560 720 722 789 849 916 952 1124 1115 1170 1148 1135 1327 1288 1238 1246 1199 1097 1144 1083 1101 1033 1040 994 915 812 723 703 690 669 539 560 479 463 312 341 460 458 469 438 356 340 361 352 294 309 237 230 200 109 138 280 345 253 163 0 0 272 0 98 302 329 305 317 434 452 411 397 310 330 244 69
1024 999 987 1043 1090 1076 1017 771 764 754 756 848 718 794 864 870 918 979 1088 1261 1329 1344 1440 1399 1419 1504 1396 1308 1349 1362 1314 1202 1172 1118 960 912 920 910 777 675 688 701 648 556 589 522 448 329 365 481 496 495 479 382 350 552 378 358 146 0 176 124 0 0 0 37 386 210 0 0 0 62 26 129 277 324 349 366 362 395 377 167 152 0 0
980 1007 937 1004 1072 993 918 849 893 926 982 920 796 847 974 1010 1077 1148 1328 1410 1236 1348 1340 946 928 1042 1191 1394 1447 1416 1299 1128 1111 1031 949 1063 1041 832 585 648 736 722 647 653 677 612 524 457 379 381 411 448 514 459 468 414 405 348 273 283 135 0 0 0 0 0 22 0 0 0 0 0 118 215 305 339 388 391 344 322 318 0 0 0 0
987 941 804 803 868 844 796 808 919 858 884 913 910 1013 1092 1148 1231 1341 1398 966 743 859 800 979 1151 1249 1318 1376 1370 1314 1219 1049 1006 991 990 1068 1013 741 590 694 924 959 833 793 797 717 666 597 538 429 427 414 529 505 523 463 362 407 299 180 0 2 0 0 0 0 0 0 0 0 95 0 77 90 183 206 206 210 304 296 0 0 0 0 0
979 913 821 846 791 819 857 845 879 844 840 992 1146 1262 1278 1302 1186 1091 884 631 767 802 922 1107 1196 1232 1324 1277 1237 1196 1100 1091 1146 1017 806 749 682 759 894 979 1114 1142 1106 922 852 782 725 670 661 551 503 489 533 520 538 456 358 285 262 38 11 156 0 0 0 0 0 0 25 38 0 0 0 87 122 169 250 336 190 0 0 0 0 0 0
954 897 912 938 935 927 923 861 855 914 1055 1231 1375 1430 1318 1148 866 684 630 751 823 900 1024 1112 1206 1225 1256 1203 1206 1188 1163 1104 1024 868 611 564 586 644 854 1023 1145 1149 1118 1021 829 793 861 817 745 623 560 541 574 526 536 486 398 572 553 496 406 19 0 0 0 0 0 0 0 0 0 0 0 128 188 275 306 27 0 0 0 0 0 0 0
959 978 1036 1055 1052 980 954 952 966 1089 1200 1307 1382 1326 1091 759 560 534 706 877 953 994 984 1043 1043 962 940 916 913 914 812 751 734 661 576 530 505 487 534 607 870 1034 1098 1035 940 844 848 892 891 735 633 568 583 538 530 525 458 473 541 358 81 0 0 0 0 0 0 0 0 61 104 10 115 206 256 220 26 0 0 0 0 0 0 0 0
1040 1074 1116 1115 1062 1003 906 879 945 995 1068 1209 1403 1136 744 531 508 690 826 882 857 846 909 894 781 676 603 545 550 550 539 543 521 495 522 484 485 470 507 590 714 913 1029 976 872 1021 904 852 905 767 651 549 569 607 547 544 491 483 413 312 131 0 0 0 0 0 0 0 0 0 19 0 147 184 154 38 0 0 0 0 0 0 0 0 0
1090 1180 1216 1165 1038 1063 982 910 1052 1100 1124 1228 904 493 453 442 530 751 777 650 566 631 755 683 633 554 490 462 433 404 422 403 373 420 465 526 594 626 536 536 587 799 1115 1078 963 1084 1073 1052 1080 914 744 615 515 548 586 605 573 521 414 301 0 0 0 0 0 0 0 0 0 0 0 0 0 51 110 124 98 0 0 0 0 0 0 0 0
1103 1219 1245 1231 1187 1196 1088 994 1136 1230 898 542 325 327 343 384 581 715 704 476 463 559 566 516 501 457 426 462 445 448 416 417 371 330 58 33 80 432 567 541 398 508 698 1147 1012 1042 948 870 848 710 602 562 510 462 491 515 547 485 438 337 175 0 0 0 0 0 0 0 0 0 0 0 0 0 46 36 0 0 0 0 0 0 0 0 0
Wind_Speed
27 32 31 34 33 33 35 36 37 38 39 37 35 33 32 35 38 40 40 40 38 37 36 35 35 35 35 35 36 36 36 36 35 36 34 32 31 32 30 30 30 30 30 31 31 30 30 29 29 28 28 27 27 26 26 27 28 27 26 24 23 22 22 19 nan nan nan nan 20 nan nan 19 20 23 21 20 20 20 18 17 13 9 6 11 16
32 33 34 35 38 36 38 39 38 39 37 34 33 33 33 36 39 39 39 39 36 35 34 35 35 35 34 34 37 37 37 36 36 35 33 31 31 31 30 30 30 30 31 31 31 30 30 29 28 28 28 27 28 28 27 28 29 26 23 24 24 23 21 19 18 18 nan nan nan nan nan nan 19 21 21 20 19 20 19 18 16 8 6 15 17
35 36 36 39 42 41 41 42 41 39 37 34 34 34 35 38 39 37 38 37 35 34 35 35 34 36 35 35 35 35 36 37 36 34 32 31 30 30 30 29 29 29 30 31 30 29 28 27 27 27 25 25 26 27 26 27 27 24 23 24 24 22 20 19 17 16 17 18 18 19 20 nan 19 19 21 21 21 20 20 18 16 12 9 17 15
38 37 39 43 46 44 45 45 43 41 38 35 36 37 37 38 37 36 36 35 33 33 33 35 34 33 34 34 35 35 35 36 35 34 32 30 29 29 29 29 29 30 30 30 30 29 28 27 27 26 26 26 26 26 26 26 25 23 23 23 24 23 20 18 16 15 15 15 15 14 11 nan 14 nan 18 19 20 20 19 18 17 16 16 16 17
40 41 42 43 42 45 47 48 46 43 40 38 38 39 38 38 37 35 35 33 32 32 33 33 34 34 34 35 34 34 34 35 34 32 29 28 27 27 27 28 29 30 29 30 30 27 27 27 27 26 26 26 26 25 25 24 24 22 21 22 21 19 18 16 15 14 14 15 15 13 nan nan nan nan nan 18 20 19 18 17 16 16 16 16 16
41 43 44 42 41 45 50 49 48 44 41 40 40 39 38 37 36 35 33 32 32 33 33 33 34 33 34 35 35 33 32 32 30 30 28 27 25 27 27 28 29 29 30 30 28 28 27 28 27 26 26 26 25 25 24 23 22 21 18 15 13 9 11 11 13 15 13 13 13 nan nan nan nan nan nan 19 17 17 17 17 16 15 16 17 17
45 44 43 41 41 46 51 50 48 43 41 41 39 38 37 36 35 34 33 32 32 32 33 33 33 35 34 34 35 33 30 28 25 28 27 25 24 24 26 27 28 29 30 29 26 27 27 26 26 26 25 25 24 24 24 23 21 18 16 14 11 9 11 12 13 12 11 nan nan nan nan nan 11 10 16 nan nan nan nan nan 16 16 16 15 15
44 44 42 42 45 49 51 49 46 42 41 40 38 37 37 36 34 34 33 32 32 32 33 33 34 35 35 35 36 33 29 25 25 26 25 24 23 24 24 27 28 29 29 28 26 26 26 27 26 25 25 25 23 23 23 22 20 17 14 11 9 7 8 10 14 13 12 7 nan nan nan nan nan nan 19 19 18 nan 18 nan nan nan 17 19 19
46 45 44 45 46 51 49 47 44 42 40 38 37 38 37 36 35 33 33 32 32 33 33 34 34 36 37 35 35 32 27 26 26 25 23 24 24 22 22 24 27 29 28 26 24 23 25 26 26 25 25 24 23 22 22 21 20 17 13 10 7 8 9 10 14 12 7 nan nan nan nan nan nan nan nan nan nan nan 19 17 15 nan 18 18 19
47 47 47 45 42 47 46 44 41 40 39 38 37 37 37 36 35 34 34 33 32 32 33 34 35 35 37 36 34 33 29 27 27 26 26 26 25 24 26 27 29 30 29 26 24 24 22 23 24 24 23 22 22 21 20 20 19 17 14 11 11 14 16 15 13 9 6 nan nan nan 8 10 nan nan 15 nan 20 19 nan nan 14 nan 16 18 19
49 48 47 44 41 43 41 40 40 40 38 37 37 37 36 36 36 35 33 33 33 33 32 34 35 36 36 37 35 32 30 28 28 28 28 28 28 28 29 29 30 30 29 26 24 24 23 22 23 24 23 21 21 20 18 18 19 18 15 14 17 18 19 16 11 6 6 7 6 nan 7 12 nan nan 18 19 nan 21 20 19 19 18 18 18 nan
48 47 45 40 40 40 38 38 39 38 38 37 39 38 38 37 37 35 34 33 32 32 32 32 34 36 36 36 35 32 30 28 28 29 29 29 28 29 30 30 30 30 30 27 25 24 22 22 22 23 22 21 19 18 17 17 19 19 17 17 18 18 19 16 9 7 6 7 6 5 nan 8 9 13 19 19 19 19 nan nan nan nan nan 21 20
47 45 42 37 35 37 37 38 38 37 37 38 39 39 38 37 37 35 34 32 32 31 32 33 34 35 36 37 36 34 30 29 29 29 29 29 29 30 31 30 31 31 31 29 26 25 23 22 22 22 21 20 19 17 16 16 19 20 18 19 20 19 18 16 8 8 7 7 6 6 nan nan nan 16 17 19 20 nan nan nan 21 21 22 23 22
44 42 38 35 34 38 38 37 37 38 38 39 39 38 37 36 36 34 32 32 32 31 32 34 34 35 36 35 35 33 31 28 28 28 29 29 30 31 31 31 31 31 31 30 26 25 24 23 22 21 20 19 17 16 14 16 19 21 20 19 21 19 19 13 10 7 7 7 6 5 nan nan nan 16 16 nan nan 19 19 nan nan nan nan nan nan
40 38 35 34 34 33 38 36 37 39 40 40 40 38 37 36 34 33 33 32 32 32 33 35 35 36 36 36 36 35 32 29 27 28 30 30 31 31 31 31 31 31 31 31 27 25 24 24 23 22 21 19 18 16 14 15 18 20 20 18 21 20 18 10 8 7 7 7 6 7 nan nan 12 14 nan 16 17 nan nan nan nan nan nan nan nan
36 36 35 34 32 30 30 35 40 40 40 39 39 38 37 36 35 34 33 32 32 32 33 34 35 36 35 36 36 35 33 30 29 29 29 30 31 31 31 31 32 33 33 33 28 24 25 24 23 23 21 20 20 18 16 16 18 20 19 17 21 20 19 12 9 8 7 7 7 7 6 6 13 12 13 15 16 16 17 18 nan nan nan nan nan
33 33 33 31 29 28 29 31 35 41 39 38 39 38 38 36 35 34 32 32 32 31 32 33 34 35 35 34 35 34 33 31 30 29 29 31 32 32 33 32 32 34 36 36 32 25 24 24 24 23 21 20 20 19 17 17 18 20 19 19 19 20 19 15 11 9 9 7 6 7 7 7 13 13 12 14 14 15 16 17 18 19 20 nan nan
31 31 30 29 28 29 30 31 33 34 34 37 39 39 38 37 35 34 32 31 30 31 31 31 32 31 33 33 33 33 33 32 31 31 30 30 32 32 34 34 31 32 35 39 37 28 22 23 24 23 21 19 20 19 18 18 19 20 20 21 19 19 19 16 12 10 9 9 8 7 7 11 15 14 14 13 13 13 14 15 16 nan nan nan nan
30 31 31 30 31 31 32 32 33 33 34 33 33 37 39 38 36 34 32 30 29 30 30 29 30 31 31 31 32 33 33 33 32 31 31 32 32 33 35 34 31 30 33 37 40 34 23 21 23 23 21 19 19 19 17 18 19 20 20 21 20 18 19 14 12 11 10 10 9 8 7 14 14 15 14 13 13 13 13 14 15 16 18 nan nan
30 31 32 32 32 33 33 33 33 34 33 32 33 33 36 37 35 33 30 31 31 31 30 29 32 33 31 31 32 31 32 32 33 28 31 33 32 30 33 32 29 29 31 33 39 35 26 21 22 22 19 18 18 18 17 17 17 19 18 21 20 18 13 13 13 13 12 9 9 7 9 13 15 15 15 14 13 13 13 13 14 15 16 17 nan
30 31 31 31 33 33 35 34 34 34 33 33 32 32 33 35 33 32 32 33 33 31 30 32 33 33 30 30 29 28 28 28 27 24 30 28 30 30 29 28 27 27 29 32 35 31 26 23 21 21 19 17 16 18 17 16 16 18 18 19 20 15 12 14 14 13 11 9 8 7 12 13 15 16 16 14 14 14 14 14 15 16 16 17 17
31 31 30 32 32 33 34 34 33 33 33 32 31 30 31 32 29 29 30 31 31 30 29 29 32 30 32 28 26 27 28 28 27 28 26 28 29 30 28 28 28 26 27 32 32 28 26 23 20 19 18 18 17 15 12 12 16 19 19 21 17 13 13 14 15 13 9 8 8 8 13 13 15 15 16 15 14 15 15 15 16 16 17 17 18
32 30 30 31 31 33 34 33 33 33 33 32 30 29 30 29 28 28 28 29 28 29 28 31 30 31 30 28 28 28 27 27 27 27 28 31 27 27 27 26 25 25 28 30 28 25 24 22 20 18 19 19 16 16 12 9 12 20 21 18 15 14 14 14 14 13 9 7 8 11 12 15 16 16 16 15 16 16 16 16 17 17 17 17 17
32 30 30 30 32 33 34 33 33 33 33 30 30 30 29 28 27 26 26 25 27 28 29 30 31 30 30 29 29 28 27 26 29 32 32 28 24 23 21 21 23 26 29 25 24 23 23 20 18 18 17 16 nan 16 12 8 13 17 18 18 17 15 15 14 13 12 9 8 9 12 13 14 16 16 16 17 18 17 17 17 17 17 17 18 18
31 31 30 31 32 33 32 33 33 33 32 30 31 29 27 26 25 25 25 25 27 27 28 29 30 30 30 29 29 28 28 26 27 29 28 25 21 18 18 20 21 23 24 20 19 19 nan nan nan 14 nan nan nan 16 12 9 12 17 18 18 18 16 15 15 13 12 10 10 10 13 13 15 15 14 17 19 19 20 18 18 18 18 18 19 19
28 27 27 30 31 32 33 33 34 33 32 31 29 26 24 24 24 23 24 24 26 26 27 29 30 30 29 30 29 29 28 27 27 27 26 24 23 22 22 23 23 21 19 nan 17 17 nan nan 14 nan nan nan nan 15 nan nan 11 17 18 18 18 17 17 15 13 12 11 12 14 16 18 17 14 16 18 19 20 21 21 20 19 19 19 19 20
24 23 26 28 29 31 34 34 34 32 32 30 26 23 21 22 22 21 24 24 25 26 26 27 28 28 29 30 30 29 28 28 27 26 25 24 26 25 23 20 19 18 16 16 17 17 15 15 15 nan nan nan nan 15 13 nan 10 17 18 17 18 17 16 15 13 13 13 14 17 19 19 19 19 19 18 19 21 21 22 22 21 20 20 20 21
27 28 27 28 30 32 33 35 33 32 30 28 26 23 20 20 19 21 22 23 24 26 24 23 25 27 27 29 29 28 27 27 26 27 24 24 24 21 16 15 15 16 15 17 17 15 14 13 14 nan nan nan nan 15 13 nan 12 17 18 17 17 16 15 14 15 15 15 17 18 19 19 20 21 21 20 21 21 20 20 21 21 21 21 22 22
30 31 29 30 33 34 34 35 33 30 28 26 26 24 20 19 18 22 22 22 23 22 23 22 25 25 26 27 28 27 26 27 27 26 24 22 19 14 12 12 13 14 16 17 16 15 14 14 15 16 nan nan nan nan 14 nan nan 17 18 17 16 15 14 15 15 15 16 18 18 17 19 21 21 21 20 21 21 21 19 21 21 22 23 23 23
30 30 30 31 35 35 37 37 33 30 26 23 24 23 19 19 19 22 23 21 21 21 22 22 22 23 24 25 25 26 26 27 26 24 22 18 14 13 13 13 14 13 16 17 14 15 nan nan 16 17 nan nan nan nan 14 13 15 16 17 17 15 13 13 13 14 15 16 17 16 16 21 21 21 19 19 19 20 21 20 21 21 23 24 24 24
28 27 26 28 32 33 34 35 32 29 26 23 22 nan 18 18 18 18 18 18 18 20 22 22 21 22 23 24 24 24 25 23 21 19 18 15 13 14 14 13 14 14 15 14 12 14 nan nan nan nan nan nan nan nan 14 14 15 16 16 15 13 12 13 14 15 16 17 15 15 17 18 20 19 19 18 18 21 19 19 22 23 22 24 25 24
23 23 22 23 27 29 31 31 29 26 24 24 22 18 14 15 14 13 13 16 17 18 20 21 21 21 22 23 23 22 20 17 16 16 15 13 12 15 14 15 15 14 13 12 13 nan nan nan nan nan nan nan nan nan 14 16 16 15 15 14 13 13 14 15 16 17 16 15 17 17 16 15 18 19 20 21 20 18 18 19 21 22 22 23 24
17 20 21 21 23 26 28 26 25 22 20 20 18 16 13 13 13 11 13 15 16 18 19 19 21 21 21 20 18 17 15 14 15 15 13 12 13 15 16 16 16 13 11 12 nan nan nan nan nan nan nan nan nan nan 15 16 17 16 14 12 12 13 15 15 16 14 14 15 15 13 12 12 13 16 18 18 19 18 15 16 19 20 21 21 22
20 21 23 22 21 23 23 19 19 19 16 15 16 16 16 14 13 12 13 15 16 18 19 19 17 14 13 11 11 11 10 12 13 13 13 13 14 15 16 16 15 12 11 12 13 13 nan nan nan 18 18 nan nan 15 15 15 15 16 14 10 11 14 15 16 10 9 11 12 11 11 11 12 13 13 13 17 18 18 20 19 18 19 19 21 20
23 24 25 23 23 23 21 18 17 17 17 17 16 15 15 15 15 13 13 13 12 14 16 14 8 5 7 8 8 8 9 10 12 13 13 13 13 14 14 15 14 12 11 11 13 13 nan nan nan 16 nan nan nan nan 14 13 13 14 11 8 11 14 14 11 9 9 10 9 11 10 11 11 12 13 13 14 15 19 21 20 20 22 26 26 26
24 26 25 24 26 25 22 19 18 18 17 16 14 12 13 15 14 13 12 9 8 8 9 9 8 7 8 9 8 8 8 10 11 13 14 12 nan 12 14 16 14 11 11 11 12 13 13 nan nan 13 nan nan nan nan 14 14 12 11 7 9 12 12 9 9 9 9 8 9 9 9 10 11 11 12 13 12 12 14 20 21 22 24 24 23 18
25 25 25 25 24 24 21 21 20 18 17 16 14 12 11 11 12 13 11 9 6 6 7 10 11 11 10 10 9 9 10 11 13 14 14 13 13 14 14 15 13 11 10 10 12 11 13 nan nan nan nan nan 15 15 14 nan 12 nan 8 11 11 9 7 6 7 7 7 8 8 9 10 10 8 12 10 11 11 12 17 20 20 22 22 20 19
23 24 23 23 22 20 18 19 20 19 19 18 16 13 12 11 11 11 10 10 9 9 11 12 11 11 10 9 10 11 12 12 13 12 12 12 13 13 13 13 11 10 9 11 12 12 13 nan nan nan nan 15 17 17 14 12 10 8 9 10 8 8 6 5 6 6 6 7 8 8 nan nan 9 9 10 10 10 12 12 15 21 22 22 20 21
20 22 22 21 20 19 18 19 20 20 20 20 18 16 14 14 14 12 11 11 11 12 12 11 10 9 6 7 8 10 9 8 8 8 10 11 11 11 11 9 9 9 10 11 13 13 13 12 nan nan 14 15 17 17 14 11 10 9 10 9 8 8 7 6 7 8 8 8 7 7 9 9 9 9 9 9 9 10 12 12 12 12 15 21 21
18 20 21 21 21 20 19 19 20 20 20 20 18 17 15 15 15 13 12 9 10 10 9 7 6 4 4 6 7 7 6 5 6 6 8 9 9 9 9 8 8 9 10 12 12 13 13 14 nan 15 14 14 16 16 15 15 15 13 13 12 11 9 9 8 7 7 7 8 8 9 9 8 9 9 10 11 11 11 13 14 12 12 13 17 22
17 19 20 20 20 20 21 21 20 21 20 20 18 17 16 15 13 11 10 9 9 9 8 7 5 6 5 6 6 5 5 5 5 6 6 7 9 9 9 8 9 10 11 11 13 13 13 13 nan 13 14 14 14 14 14 16 19 16 13 12 14 11 8 6 5 7 8 8 10 10 10 10 11 12 11 12 12 14 13 15 13 13 14 15 17
17 18 19 19 19 19 21 21 20 20 19 19 18 16 14 11 10 10 11 11 10 9 9 9 8 7 6 5 5 5 5 6 6 7 7 8 9 10 10 10 10 11 13 14 14 14 14 14 13 15 13 14 13 11 12 15 16 15 14 13 16 13 9 9 10 10 10 11 nan nan 12 nan nan 13 13 13 15 16 15 15 14 14 16 17 nan
17 18 19 19 18 17 17 18 18 19 18 18 17 15 13 12 11 11 12 13 13 12 11 9 9 7 7 6 7 7 8 8 9 9 10 10 11 12 11 11 12 13 15 14 15 15 14 13 13 15 16 15 14 13 14 14 14 15 15 nan 14 13 nan nan nan nan 13 12 nan nan nan nan nan 13 14 16 17 16 17 17 16 17 17 nan nan
18 19 18 18 16 15 16 17 18 17 18 17 18 17 15 14 14 14 15 14 12 13 14 12 11 11 10 9 9 10 11 12 12 12 13 13 13 13 13 13 13 14 15 15 14 14 14 14 15 15 16 17 14 14 14 13 14 16 15 14 12 nan nan nan nan nan nan nan nan nan nan nan 15 16 17 19 18 19 17 18 19 nan nan nan nan
19 19 18 16 15 17 17 17 17 18 19 20 20 19 19 18 18 17 16 17 17 15 13 12 10 9 10 10 10 12 13 14 14 13 13 13 12 13 14 14 15 16 16 15 14 14 13 14 15 16 15 16 14 14 15 16 15 14 16 17 nan nan nan nan nan nan nan nan nan nan nan nan nan nan 19 20 19 18 18 19 nan nan nan nan nan
21 20 18 17 17 17 17 17 17 18 20 20 19 18 17 16 15 14 13 13 11 11 9 6 7 7 7 10 12 12 13 14 13 13 13 12 12 11 13 14 15 16 16 15 14 15 14 14 13 15 17 16 16 17 16 16 17 18 16 nan nan 12 nan nan nan nan nan nan nan nan nan nan nan nan 20 20 20 19 18 nan nan nan nan nan nan
20 21 19 18 18 17 17 17 16 17 17 17 17 17 16 14 12 12 11 9 10 10 12 9 7 7 10 10 11 12 12 12 12 12 13 13 12 12 12 13 14 15 16 16 13 12 13 14 15 16 16 17 17 17 16 15 17 18 19 18 17 nan nan nan nan nan nan nan nan nan nan nan nan 21 21 20 19 nan nan nan nan nan nan nan nan
21 21 20 18 18 18 17 17 16 17 16 15 14 14 14 12 13 13 12 12 13 13 13 12 11 10 11 11 12 11 10 10 10 11 12 12 12 12 13 13 14 15 16 15 13 12 14 15 14 14 15 15 15 16 15 15 17 15 18 19 nan nan nan nan nan nan nan nan nan nan 19 nan 23 20 18 18 nan nan nan nan nan nan nan nan nan
20 19 18 17 18 18 18 17 17 18 18 17 15 14 14 15 16 16 15 14 16 18 18 17 15 13 13 11 10 9 9 9 10 10 11 10 10 10 11 13 14 14 15 16 14 12 12 13 13 12 12 13 13 15 17 15 17 16 19 19 20 nan nan nan nan nan nan nan nan nan nan nan 22 20 18 nan nan nan nan nan nan nan nan nan nan
18 17 17 19 19 19 19 18 18 18 18 19 19 19 17 18 18 16 15 15 18 20 20 19 17 14 12 10 9 9 9 9 10 11 11 10 9 9 9 11 13 13 14 15 14 12 12 11 10 10 11 14 14 15 15 15 16 17 18 18 nan nan nan nan nan nan nan nan nan nan nan nan nan nan 19 18 nan nan nan nan nan nan nan nan nan
18 16 17 19 19 19 18 18 17 17 17 18 19 18 16 15 16 16 16 17 18 19 17 15 15 14 12 10 10 9 9 9 10 11 nan nan nan 8 8 9 12 13 14 14 13 12 11 11 12 13 12 14 15 15 16 15 16 17 17 18 18 nan nan nan nan nan nan nan nan nan nan nan nan nan nan nan nan nan nan nan nan nan nan nan nan
Wind_Direction
285 291 296 303 304 302 298 296 295 296 295 292 293 294 293 295 298 299 298 298 299 299 300 301 302 305 308 309 310 312 313 313 313 312 310 306 302 298 297 297 298 299 299 295 294 295 294 295 296 297 294 293 293 291 289 291 293 292 285 283 281 281 280 273 nan nan nan nan 253 nan nan 244 251 244 243 243 241 240 236 236 229 217 222 245 256
292 293 296 300 303 302 301 298 296 297 296 293 293 294 294 297 299 299 298 298 298 298 300 301 302 305 307 309 310 312 313 313 313 312 310 305 302 300 298 298 298 297 297 297 297 296 295 297 297 296 296 296 295 294 293 295 295 294 291 288 285 284 280 273 265 259 nan nan nan nan nan nan 246 250 247 245 242 239 236 235 234 215 216 248 254
289 294 296 299 301 302 302 301 299 298 297 296 296 296 297 300 300 298 297 297 298 298 300 301 302 305 307 309 311 313 314 313 313 311 307 304 303 301 299 300 301 299 297 297 298 298 299 299 298 297 297 297 293 291 294 295 295 296 295 291 287 284 280 274 267 264 260 251 245 238 247 nan 244 244 246 242 238 237 236 234 232 227 235 244 246
292 293 295 300 300 300 302 301 300 298 296 297 299 300 300 301 299 297 295 294 295 297 299 301 302 304 306 308 310 313 313 312 311 308 304 301 299 298 300 303 301 299 298 296 297 301 300 299 298 298 298 297 296 296 297 296 297 296 295 295 292 285 281 277 273 269 262 252 238 226 212 nan 226 nan 243 246 241 238 236 234 233 234 236 239 243
291 292 295 296 297 300 302 301 300 297 295 297 300 302 301 300 298 295 293 292 292 296 298 300 301 304 306 307 309 311 313 312 310 306 301 301 301 300 299 302 303 301 299 298 298 300 302 301 302 301 299 296 296 298 297 295 294 295 298 299 298 282 270 275 277 273 265 252 238 226 nan nan nan nan nan 243 240 237 234 234 234 233 235 239 243
287 290 292 292 295 299 300 299 299 295 293 297 301 301 300 298 295 293 291 291 291 293 296 299 302 303 304 305 307 310 312 310 307 304 302 302 304 303 302 303 302 302 300 299 299 303 304 303 301 302 299 298 297 295 291 292 292 295 296 301 303 287 275 272 276 279 270 251 228 nan nan nan nan nan nan 246 242 238 238 235 233 232 232 235 239
286 287 289 289 292 297 297 297 297 293 293 297 300 299 298 295 292 290 290 289 291 293 295 298 300 302 302 304 305 308 311 306 300 302 301 306 307 300 301 301 302 302 300 299 302 306 305 303 302 302 299 297 294 292 291 290 289 288 293 298 296 284 273 267 280 278 262 nan nan nan nan nan 216 236 252 nan nan nan nan nan 232 229 230 234 245
279 284 286 288 293 295 295 295 295 291 292 296 297 297 294 293 290 289 289 290 292 294 295 298 300 300 300 301 303 307 308 300 296 294 289 288 292 299 302 302 301 302 301 300 303 306 305 304 304 303 299 296 293 287 285 286 285 285 285 281 276 281 279 273 279 274 260 244 nan nan nan nan nan nan 247 249 248 nan 240 nan nan nan 238 236 238
279 283 285 289 292 294 291 292 291 290 292 294 295 295 293 290 287 287 287 289 292 294 295 297 298 299 298 299 301 305 301 292 287 285 286 291 292 295 296 298 301 302 300 299 301 302 303 303 304 302 298 294 288 285 283 283 283 282 279 277 286 309 307 291 280 267 250 nan nan nan nan nan nan nan nan nan nan nan 237 224 227 nan 245 243 241
279 281 285 287 288 291 290 290 290 290 292 293 293 292 290 288 286 285 285 287 289 291 294 296 295 297 298 299 300 300 296 289 283 282 281 280 281 282 282 284 289 294 297 300 302 301 299 297 297 294 290 286 282 280 279 279 277 273 266 265 276 307 303 292 277 257 247 nan nan nan 244 238 nan nan 260 nan 258 255 nan nan 242 nan 237 239 241
280 280 282 282 285 288 288 289 289 290 291 291 291 289 286 287 284 285 286 286 287 289 291 293 294 296 297 298 299 296 293 287 281 280 277 277 279 282 282 285 290 295 299 302 303 301 299 297 295 292 289 286 283 280 278 276 274 269 265 268 278 282 284 279 263 246 247 246 236 nan 248 238 nan nan 259 260 nan 252 253 252 249 244 241 243 nan
279 278 279 278 283 284 284 285 286 287 289 288 290 287 288 287 286 285 285 284 284 287 288 289 291 294 294 295 297 294 291 286 280 278 279 279 280 283 285 287 290 295 299 301 301 300 299 296 293 291 290 287 283 280 277 274 272 268 265 273 281 275 276 273 254 246 246 250 240 227 nan 244 248 259 258 259 264 263 nan nan nan nan nan 247 251
278 277 276 274 274 280 280 281 283 285 285 286 287 287 289 287 287 286 285 284 284 285 288 288 287 289 292 295 295 294 291 286 281 280 280 281 281 283 286 288 291 295 299 300 301 300 298 295 293 291 289 287 283 279 274 273 271 269 268 277 287 284 282 275 253 251 253 251 242 233 nan nan nan 272 269 265 262 nan nan nan 251 250 248 245 244
276 274 273 270 269 278 278 279 280 282 283 284 285 286 286 285 286 286 285 284 285 287 286 286 285 288 291 292 293 293 291 287 283 282 282 282 283 285 288 290 291 294 296 297 298 297 296 294 292 289 286 283 280 275 272 270 268 267 269 280 293 289 285 274 267 255 259 259 247 243 nan nan nan 275 273 nan nan 267 262 nan nan nan nan nan nan
273 271 270 268 269 271 279 277 277 279 280 281 283 284 285 284 285 284 284 283 285 286 286 285 286 288 288 290 291 290 290 287 285 283 282 281 282 285 288 289 290 291 292 293 294 294 293 290 289 289 286 281 275 273 268 265 264 265 268 278 297 292 288 272 264 257 259 261 248 244 nan nan 272 274 nan 270 265 nan nan nan nan nan nan nan nan
267 266 266 266 267 268 269 277 278 277 279 281 283 286 286 285 284 283 282 282 284 285 284 283 285 285 286 287 288 289 290 289 286 285 283 282 284 286 286 286 288 289 288 288 288 289 289 286 288 288 285 279 273 269 264 258 258 261 269 282 298 295 292 277 263 249 248 251 253 247 242 254 280 281 287 287 283 278 273 265 nan nan nan nan nan
263 262 263 264 265 264 267 270 277 284 281 284 286 286 285 283 282 282 282 283 284 284 282 282 282 284 286 286 286 287 288 288 286 285 283 283 284 285 284 282 284 287 288 286 282 282 285 286 285 285 283 277 270 264 258 252 250 252 264 289 294 295 293 280 261 249 254 250 247 248 247 241 273 273 268 266 268 268 269 270 267 264 259 nan nan
262 261 261 262 263 264 265 269 275 277 281 286 288 285 283 282 282 282 283 283 284 284 281 280 281 282 285 285 285 286 286 286 285 284 282 280 282 283 282 284 283 283 286 286 283 278 278 282 284 285 282 276 270 262 254 246 243 245 263 288 291 293 292 280 264 253 245 246 243 236 236 267 274 273 276 279 282 280 274 269 266 nan nan nan nan
261 261 258 260 263 266 266 271 274 278 281 281 281 285 285 284 283 283 282 282 284 283 278 276 280 283 284 286 285 287 287 284 283 280 278 279 281 282 285 287 285 281 283 289 288 282 277 278 281 282 281 276 270 262 250 242 240 242 258 284 286 290 291 274 262 252 241 239 239 239 251 280 277 274 271 271 273 277 281 278 270 263 262 nan nan
261 260 257 258 263 265 268 272 276 280 282 282 282 283 285 286 285 284 280 281 285 283 277 275 280 285 287 289 289 286 285 283 284 277 277 277 276 277 286 287 284 279 282 292 291 285 281 278 278 279 278 275 269 260 249 238 238 243 255 280 283 283 270 267 257 252 250 241 239 242 270 286 280 280 277 275 277 279 277 273 273 273 269 266 nan
254 256 257 259 262 265 270 272 278 281 282 283 283 284 286 286 283 282 280 283 288 285 278 279 284 286 284 285 282 279 281 281 279 274 277 273 275 282 290 289 285 282 286 294 292 283 280 279 275 275 275 271 266 259 247 233 235 245 260 282 275 258 265 262 260 255 250 245 244 245 270 269 277 277 274 272 274 275 275 275 276 276 276 275 273
250 253 256 259 263 265 268 272 276 280 281 280 280 282 283 282 276 274 275 283 286 281 272 270 278 275 278 273 270 270 272 275 274 276 272 275 277 283 285 287 288 287 291 294 287 279 279 281 279 277 275 271 265 268 255 231 235 249 269 273 261 261 254 260 262 259 247 248 247 258 275 270 271 270 271 270 267 271 273 274 273 274 276 275 275
248 248 252 257 258 262 266 270 275 278 280 280 281 280 275 271 272 273 277 282 278 271 264 268 267 268 266 267 266 267 271 269 268 271 269 279 279 280 279 281 284 288 292 289 280 277 278 278 279 276 274 276 276 274 267 248 236 248 267 266 264 259 251 253 260 262 252 240 242 273 269 266 265 267 266 267 263 263 264 268 272 274 274 275 276
236 240 251 251 255 260 266 271 276 279 279 279 275 272 272 272 271 270 268 267 266 266 266 267 266 267 269 269 268 268 268 269 276 279 277 275 276 273 274 275 278 288 288 277 273 277 276 274 276 278 276 278 nan 276 276 263 251 257 263 266 263 257 252 248 256 260 254 242 236 270 258 259 261 262 264 264 266 263 262 262 265 267 270 273 275
232 234 245 254 256 261 267 271 273 274 275 274 271 271 271 271 271 270 266 265 265 265 265 264 266 266 268 268 267 268 270 267 264 265 269 273 261 248 251 255 264 272 271 261 262 266 nan nan nan 275 nan nan nan 276 278 261 253 259 262 262 259 254 250 245 244 248 246 245 238 257 246 254 262 263 262 270 269 263 260 259 260 262 263 265 269
260 248 251 258 262 268 272 273 275 276 277 274 275 275 277 274 272 271 271 267 265 262 261 263 265 268 270 271 269 272 273 270 267 269 271 267 253 247 253 256 260 260 257 nan 259 262 nan nan 273 nan nan nan nan 285 nan nan 252 254 254 251 252 248 247 244 239 240 243 247 245 250 245 249 260 259 264 267 264 261 259 257 257 257 257 259 261
264 265 267 267 272 273 277 278 278 280 281 283 281 279 275 274 274 271 273 271 265 263 261 262 265 267 269 272 275 276 275 270 270 274 274 263 254 254 256 252 252 249 247 256 257 258 261 264 267 nan nan nan nan 271 282 nan 249 252 252 248 245 243 241 240 237 239 239 244 248 250 245 245 255 256 263 265 262 261 260 257 255 257 258 258 259
272 281 281 283 281 278 281 284 287 287 285 286 285 285 281 280 276 271 269 273 269 269 265 262 262 266 268 271 274 275 275 272 275 279 276 264 261 259 254 247 246 247 249 260 263 260 261 262 264 nan nan nan nan 263 267 nan 247 253 254 246 242 240 236 235 237 235 235 239 240 245 246 246 255 254 262 263 262 262 259 260 259 261 262 261 260
288 289 290 288 287 288 286 285 284 284 286 288 290 287 290 287 277 274 273 274 270 267 266 263 267 267 265 268 273 275 273 273 276 277 273 270 262 253 250 246 247 252 258 259 267 266 261 261 257 258 nan nan nan nan 263 nan nan 248 255 250 244 239 235 234 236 236 238 241 241 244 247 246 249 263 267 265 266 265 262 263 265 265 264 263 263
293 294 295 294 292 294 294 290 286 287 289 289 283 288 290 290 280 275 274 269 266 264 263 265 265 265 264 267 270 275 276 274 273 272 274 270 257 249 251 252 255 255 263 267 268 270 nan nan 257 257 nan nan nan nan 262 257 250 248 249 250 246 243 237 237 238 242 240 241 242 244 249 243 244 256 269 271 269 267 260 264 267 266 266 264 264
290 296 295 298 300 300 297 293 285 281 286 289 290 nan 287 285 282 277 277 276 268 265 267 266 262 262 267 269 270 272 273 268 268 265 258 257 251 256 256 258 260 259 267 270 267 271 nan nan nan nan nan nan nan nan 260 255 252 248 244 248 251 243 237 233 234 235 237 239 241 241 242 245 248 250 257 260 268 267 262 260 272 270 266 263 263
294 300 297 297 302 306 304 298 289 285 289 290 293 288 285 286 282 275 276 275 272 270 266 259 260 264 269 271 272 273 268 258 255 250 245 244 247 250 256 264 266 261 266 269 269 nan nan nan nan nan nan nan nan nan 244 253 245 241 241 243 246 244 239 236 233 233 233 231 232 235 240 244 250 253 250 247 244 266 271 265 267 272 270 266 264
283 286 291 301 307 306 304 298 287 291 296 299 297 298 298 293 282 278 278 275 269 264 265 264 260 267 271 273 274 268 260 258 247 243 239 243 244 247 254 264 266 266 265 267 nan nan nan nan nan nan nan nan nan nan 240 246 243 234 241 242 243 240 235 235 229 227 228 229 230 233 237 242 243 242 243 243 244 244 265 268 269 269 268 267 266
278 279 288 298 305 309 310 294 287 292 298 294 294 296 292 287 276 270 272 269 261 259 259 264 272 275 277 274 273 266 262 252 246 242 252 257 252 255 264 268 268 269 266 265 264 262 nan nan nan 256 250 nan nan 242 244 245 236 235 242 247 241 239 235 231 232 234 225 229 233 235 233 234 234 236 236 237 238 239 241 250 249 252 262 266 267
280 287 294 293 299 307 314 307 303 299 299 294 294 284 274 271 268 271 272 267 257 252 251 256 268 271 278 273 271 269 264 260 252 260 266 266 266 268 271 275 276 274 271 261 265 260 nan nan nan 261 nan nan nan nan 232 245 244 244 253 251 243 237 230 235 234 230 229 226 229 225 227 230 232 235 236 241 240 243 254 253 254 251 250 249 252
295 297 295 291 291 300 311 311 313 307 300 288 270 263 266 264 265 271 270 261 248 244 244 252 261 273 276 275 273 270 263 261 261 263 268 267 nan 276 274 278 278 273 266 265 265 266 257 nan nan 266 nan nan nan nan 227 243 242 244 237 235 230 235 234 235 234 227 224 224 222 222 227 229 231 236 239 239 241 243 245 244 244 246 250 255 248
296 295 294 294 293 300 311 316 317 309 295 280 270 265 264 266 266 263 262 262 262 251 245 250 267 282 281 281 278 269 263 261 262 263 267 268 267 265 265 270 271 269 267 263 261 257 260 nan nan nan nan nan 239 238 239 nan 248 nan 232 236 236 242 240 231 229 226 230 229 227 229 231 234 232 241 233 236 238 239 238 240 241 242 244 252 255
296 292 292 299 304 306 313 313 309 304 292 290 281 270 264 265 264 262 256 258 254 248 253 261 269 272 276 281 277 268 266 266 265 265 265 260 257 259 261 266 268 264 260 259 256 245 245 nan nan nan nan 248 244 245 246 248 245 241 233 244 244 239 236 233 216 219 221 228 229 231 nan nan 234 234 233 234 239 239 240 240 244 243 244 246 245
287 292 294 299 301 302 303 302 298 291 287 287 282 270 260 253 250 252 248 246 244 249 257 264 264 268 277 274 271 269 271 270 268 265 265 263 258 257 260 260 253 254 255 257 258 252 246 242 nan nan 241 240 243 238 246 255 252 242 234 227 227 223 223 220 212 214 203 204 218 222 228 222 225 227 231 236 238 246 248 246 246 248 245 245 247
283 292 297 299 298 296 293 289 291 288 284 282 279 272 263 262 261 253 250 248 247 251 251 247 252 275 273 274 271 265 262 262 259 255 260 265 266 263 262 250 246 249 254 257 258 258 259 255 nan 258 256 241 230 234 246 261 250 235 224 217 217 216 215 217 212 209 209 210 216 222 222 224 225 228 237 244 240 246 250 256 256 257 257 251 249
288 294 294 297 299 297 292 292 290 288 284 283 281 280 273 264 252 254 247 245 242 238 233 226 236 239 251 260 259 251 238 234 236 245 251 255 261 266 266 258 250 251 253 253 249 251 250 255 nan 250 258 253 232 236 248 261 268 253 241 230 227 220 215 216 222 237 226 218 225 230 227 230 230 234 238 249 258 256 260 261 265 265 261 260 254
296 295 295 295 296 294 295 293 288 287 289 291 287 282 274 269 257 247 232 232 232 233 222 220 234 244 241 245 248 246 244 245 243 244 250 260 264 267 269 269 262 256 246 244 246 247 249 251 252 243 231 249 242 243 248 246 239 263 263 241 231 221 208 212 223 225 236 237 nan nan 229 nan nan 246 245 248 250 256 260 263 263 261 263 262 nan
297 294 291 294 294 290 288 288 286 289 293 295 289 278 259 249 241 232 234 225 216 217 224 229 240 240 225 225 232 247 262 263 269 270 271 267 268 268 267 263 263 259 255 253 251 252 250 251 249 255 247 231 238 232 231 237 253 247 249 nan 242 233 nan nan nan nan 224 236 nan nan nan nan nan 248 250 250 252 258 267 269 267 263 261 nan nan
294 289 293 296 291 286 287 288 290 288 288 283 270 260 255 243 233 232 227 224 225 226 224 223 220 221 219 218 232 253 263 268 271 273 270 270 272 273 266 261 260 257 260 259 254 253 250 247 246 248 253 249 237 231 229 236 251 263 241 237 244 nan nan nan nan nan nan nan nan nan nan nan 251 248 249 255 259 265 269 266 264 nan nan nan nan
297 295 296 295 286 286 285 286 286 283 277 274 269 262 253 240 234 229 227 225 222 221 221 207 208 217 227 233 247 252 260 265 266 266 266 269 268 271 270 267 262 260 259 257 256 255 251 249 250 252 252 258 248 243 232 235 238 233 259 250 nan nan nan nan nan nan nan nan nan nan nan nan nan nan 256 260 262 265 269 268 nan nan nan nan nan
300 294 293 286 279 277 276 273 272 274 278 272 267 261 256 254 249 246 240 229 229 226 221 224 221 241 252 239 244 250 257 261 266 266 265 266 269 268 265 266 264 264 264 263 256 251 252 253 252 251 245 238 259 256 247 235 239 242 246 nan nan 251 nan nan nan nan nan nan nan nan nan nan nan nan 255 260 265 268 269 nan nan nan nan nan nan
296 288 284 277 272 271 269 270 274 276 274 268 260 254 247 245 248 251 244 243 241 207 206 214 242 236 242 252 249 246 253 263 260 261 263 262 261 259 259 260 262 262 264 263 261 261 262 259 254 252 251 251 252 260 265 255 241 238 241 241 242 nan nan nan nan nan nan nan nan nan nan nan nan 252 258 262 267 nan nan nan nan nan nan nan nan
289 282 278 274 275 274 271 271 269 271 266 263 259 256 259 253 250 244 245 238 235 230 223 233 240 249 251 250 249 247 243 243 249 251 258 262 262 258 254 254 256 257 261 264 263 258 259 252 256 256 258 263 265 267 261 260 263 249 240 245 nan nan nan nan nan nan nan nan nan nan 245 nan 248 246 253 261 nan nan nan nan nan nan nan nan nan
282 282 279 274 272 271 271 270 269 266 264 264 265 263 263 265 259 256 250 233 232 234 234 245 258 254 253 247 252 245 240 240 241 242 244 252 259 262 257 251 248 251 257 260 257 259 263 265 261 262 268 263 261 258 264 267 262 265 258 248 252 nan nan nan nan nan nan nan nan nan nan nan 254 249 248 nan nan nan nan nan nan nan nan nan nan
272 271 267 269 271 272 274 275 272 270 267 266 267 266 264 265 263 261 261 246 242 241 247 255 256 249 251 245 242 243 241 240 240 242 241 236 242 250 253 253 248 248 251 259 260 258 256 262 268 269 264 264 256 267 271 272 269 267 266 272 nan nan nan nan nan nan nan nan nan nan nan nan nan nan 252 249 nan nan nan nan nan nan nan nan nan
272 269 268 270 272 275 279 281 279 274 272 271 268 268 263 265 270 268 265 258 254 259 257 254 251 249 254 247 247 245 242 250 248 242 nan nan nan 247 255 252 248 245 248 254 262 267 265 266 263 259 265 271 270 266 264 268 269 271 268 276 279 nan nan nan nan nan nan nan nan nan nan nan nan nan nan nan nan nan nan nan nan nan nan nan nan